TimeCDT,TemperatureF,Dew PointF,Humidity,Sea Level PressureIn,VisibilityMPH,Wind Direction,Wind SpeedMPH,Gust SpeedMPH,PrecipitationIn,Events,Conditions,WindDirDegrees,DateUTC
12:54 AM,64.0,57.0,78,29.57,10.0,ENE,4.6,-,0.00,Rain,Light Rain,70,2013-05-21 05:54:00
1:45 AM,62.6,60.8,94,29.57,4.0,ENE,3.5,-,0.11,Rain,Rain,70,2013-05-21 06:45:00
1:54 AM,62.1,61.0,96,29.55,5.0,Calm,Calm,-,0.12,Rain,Light Rain,0,2013-05-21 06:54:00
2:01 AM,62.6,60.8,94,29.59,1.8,SW,5.8,-,0.06,Rain,Heavy Rain,230,2013-05-21 07:01:00
2:09 AM,60.8,60.8,100,29.59,1.2,West,8.1,20.7,0.32,Rain,Heavy Rain,270,2013-05-21 07:09:00
2:12 AM,60.8,59.0,94,29.58,0.8,WSW,5.8,20.7,0.41,Rain,Heavy Rain,250,2013-05-21 07:12:00
2:19 AM,60.8,59.0,94,29.58,1.2,Calm,Calm,-,0.44,Rain,Light Rain,0,2013-05-21 07:19:00
2:23 AM,60.8,59.0,94,29.59,3.0,SSW,3.5,-,0.45,Rain,Rain,200,2013-05-21 07:23:00
2:54 AM,60.1,57.9,93,29.56,5.0,Calm,Calm,-,0.51,Rain,Light Rain,0,2013-05-21 07:54:00
3:54 AM,59.0,57.9,96,29.53,9.0,North,4.6,-,0.01,Rain,Light Rain,360,2013-05-21 08:54:00
4:16 AM,57.2,57.2,100,29.56,8.0,Calm,Calm,-,0.00,,Mostly Cloudy,0,2013-05-21 09:16:00
4:35 AM,59.0,57.2,94,29.58,7.0,WSW,5.8,-,0.00,,Mostly Cloudy,240,2013-05-21 09:35:00
4:54 AM,59.0,57.9,96,29.58,10.0,SW,5.8,-,0.00,,Overcast,220,2013-05-21 09:54:00
5:07 AM,59.0,57.2,94,29.59,10.0,SW,4.6,-,N/A,,Overcast,220,2013-05-21 10:07:00
5:54 AM,59.0,57.9,96,29.60,1.8,South,6.9,-,N/A,,Overcast,190,2013-05-21 10:54:00
6:05 AM,59.0,57.2,94,29.61,3.0,South,5.8,-,N/A,,Overcast,180,2013-05-21 11:05:00
6:19 AM,57.2,57.2,100,29.61,1.2,South,9.2,-,N/A,,Overcast,180,2013-05-21 11:19:00
6:21 AM,57.2,57.2,100,29.61,0.8,South,8.1,-,N/A,,Overcast,180,2013-05-21 11:21:00
6:34 AM,57.2,57.2,100,29.61,1.8,South,4.6,-,N/A,,Overcast,190,2013-05-21 11:34:00
6:41 AM,57.2,57.2,100,29.61,2.0,South,6.9,-,N/A,,Overcast,170,2013-05-21 11:41:00
6:44 AM,57.2,57.2,100,29.61,1.0,South,6.9,-,N/A,,Overcast,170,2013-05-21 11:44:00
6:52 AM,57.2,57.2,100,29.61,0.8,South,5.8,-,N/A,,Overcast,180,2013-05-21 11:52:00
6:54 AM,59.0,57.9,96,29.60,0.8,South,5.8,-,N/A,,Overcast,180,2013-05-21 11:54:00
6:57 AM,59.0,57.2,94,29.61,1.2,South,5.8,-,N/A,,Overcast,170,2013-05-21 11:57:00
7:02 AM,59.0,57.2,94,29.61,3.0,South,5.8,-,N/A,,Overcast,170,2013-05-21 12:02:00
7:42 AM,60.8,57.2,88,29.62,10.0,South,5.8,-,N/A,,Overcast,170,2013-05-21 12:42:00
7:54 AM,60.1,59.0,96,29.60,10.0,Calm,Calm,-,N/A,,Overcast,0,2013-05-21 12:54:00
8:18 AM,60.8,57.2,88,29.61,10.0,SE,4.6,-,N/A,,Overcast,140,2013-05-21 13:18:00
8:54 AM,62.1,59.0,90,29.60,10.0,SSE,5.8,-,N/A,,Overcast,160,2013-05-21 13:54:00
9:20 AM,62.6,60.8,94,29.60,10.0,South,8.1,-,N/A,,Overcast,190,2013-05-21 14:20:00
9:54 AM,62.1,60.1,93,29.60,9.0,SSW,11.5,-,N/A,,Overcast,200,2013-05-21 14:54:00
10:16 AM,62.6,59.0,88,29.61,10.0,SSW,10.4,-,N/A,,Overcast,210,2013-05-21 15:16:00
10:54 AM,64.0,60.1,87,29.61,9.0,SSW,9.2,-,N/A,,Overcast,200,2013-05-21 15:54:00
11:44 AM,66.2,60.8,83,29.61,10.0,SSW,12.7,18.4,N/A,,Overcast,200,2013-05-21 16:44:00
11:54 AM,66.9,61.0,81,29.60,10.0,SSW,8.1,-,N/A,,Mostly Cloudy,210,2013-05-21 16:54:00
12:40 PM,66.2,62.6,88,29.60,10.0,SW,8.1,-,0.00,,Mostly Cloudy,220,2013-05-21 17:40:00
12:54 PM,68.0,60.1,76,29.59,10.0,SSW,10.4,16.1,0.00,,Mostly Cloudy,210,2013-05-21 17:54:00
1:54 PM,66.9,59.0,76,29.60,10.0,West,4.6,-,0.00,,Overcast,260,2013-05-21 18:54:00
2:15 PM,66.2,59.0,78,29.62,10.0,West,5.8,-,N/A,,Overcast,260,2013-05-21 19:15:00
2:54 PM,69.1,55.9,63,29.61,10.0,SW,13.8,23.0,N/A,,Mostly Cloudy,220,2013-05-21 19:54:00
3:54 PM,70.0,55.0,59,29.61,10.0,WSW,12.7,-,N/A,,Overcast,240,2013-05-21 20:54:00
4:54 PM,69.1,55.0,61,29.63,10.0,SW,12.7,20.7,N/A,,Overcast,230,2013-05-21 21:54:00
5:54 PM,69.1,55.0,61,29.64,10.0,WSW,10.4,19.6,N/A,,Clear,240,2013-05-21 22:54:00
6:54 PM,66.0,55.0,68,29.65,10.0,WSW,9.2,-,N/A,,Overcast,250,2013-05-21 23:54:00
7:54 PM,64.0,53.1,67,29.67,10.0,WSW,5.8,-,N/A,,Overcast,240,2013-05-22 00:54:00
8:54 PM,63.0,54.0,72,29.69,10.0,WSW,6.9,-,N/A,,Overcast,250,2013-05-22 01:54:00
9:54 PM,62.1,54.0,75,29.70,10.0,Calm,Calm,-,N/A,,Overcast,0,2013-05-22 02:54:00
10:54 PM,59.0,55.0,87,29.69,10.0,SW,3.5,-,N/A,,Overcast,220,2013-05-22 03:54:00
11:54 PM,55.9,54.0,93,29.68,10.0,Calm,Calm,-,N/A,,Clear,0,2013-05-22 04:54:00